Home > Weather > Öhringen > Past weeks

Flag for Germany Past Weather in Öhringen, Baden-Württemberg, Germany — Yesterday and Last 2 Weeks

Now
63 °F

Passing clouds.


Feels Like: 63 °F
Forecast: 61 / 80 °F
Wind: 5 mph from Southwest

Location: Niederstetten

Current Time: Jul 30, 2016 at 1:49:37 AM

Latest Report: Jul 30, 2016 at 12:20 AM


Visibility: N/A

Pressure: 30.01 "Hg

Humidity: 83%

Dew Point: 57 °F

Location of ÖhringenLocation

Past Weather in Öhringen — Graph

°F

Öhringen Temperature Yesterday

Maximum temperature yesterday: 75 °F (at 4:20 PM)
Minimum temperature yesterday: 61 °F (at 7:20 AM)
Average temperature yesterday: 68 °F

High & Low Weather Summary for the Past Weeks

 TemperatureHumidityPressure
High88 °F (Jul 20, 3:20 PM)100% (Jul 22, 12:20 AM)30.33 "Hg (Jul 22, 12:20 AM)
Low48 °F (Jul 15, 6:20 AM)29% (Jul 20, 4:20 PM)29.95 "Hg (Jul 21, 3:20 AM)
Average68 °F71%30.12 "Hg
* Reported Jul 15 12:20 AM — Jul 30 12:20 AM, Öhringen, Weather by CustomWeather, © 2016

Note: Actual official high and low records may vary slightly from our data, if they occured in-between our weather recording intervals... More about our weather records

Advertising

Öhringen Weather History for the Previous 24 Hours

Scroll right to see more
 ConditionsComfort  
Time TempWeatherWind HumidityBarometerVisibility
12:20 AM
Sat, Jul 30
63 °FPassing clouds.5 mph83%30.01 "HgN/A
11:20 PM
Fri, Jul 29
66 °FPassing clouds.6 mph73%30.01 "HgN/A
10:20 PM68 °FPassing clouds.13 mph69%29.98 "HgN/A
9:20 PM70 °FPassing clouds.10 mph64%29.98 "HgN/A
8:20 PM72 °FPassing clouds.15 mph57%29.98 "HgN/A
7:20 PM73 °FPassing clouds.16 mph57%29.98 "HgN/A
6:20 PM75 °FPassing clouds.17 mph50%29.95 "HgN/A
5:20 PM75 °FPassing clouds.15 mph54%29.98 "HgN/A
4:20 PM75 °FScattered clouds.15 mph50%29.98 "HgN/A
3:20 PM73 °FScattered clouds.14 mph53%30.01 "HgN/A
2:20 PM73 °FScattered clouds.13 mph57%30.01 "HgN/A
1:20 PM72 °FPassing clouds.10 mph57%30.01 "HgN/A
12:20 PM70 °FScattered clouds.10 mph64%30.04 "HgN/A
11:20 AM68 °FBroken clouds.13 mph69%30.04 "HgN/A
10:20 AM66 °FScattered clouds.15 mph68%30.04 "HgN/A
9:20 AM64 °FScattered clouds.12 mph83%30.04 "HgN/A
8:20 AM63 °FScattered clouds.13 mph88%30.04 "HgN/A
7:20 AM61 °FSprinkles. Partly sunny.10 mph94%30.01 "HgN/A
6:20 AM63 °FPassing clouds.10 mph88%30.01 "HgN/A
5:20 AM63 °FPassing clouds.10 mph88%30.01 "HgN/A
4:20 AM63 °FPassing clouds.10 mph88%30.01 "HgN/A
3:20 AM63 °FPassing clouds.10 mph88%30.01 "HgN/A
2:20 AM63 °FPartly cloudy.8 mph94%30.01 "HgN/A
1:20 AM63 °FPassing clouds.7 mph94%30.04 "HgN/A
Weather by CustomWeather, © 2016

See weather overviewHow to use our weather pages